Wind_Speed
22 25 24 21 19 18 16 14 13 11 11 10 10 11 12 11 10 8 7 6 7 5 6 6 5 4 5 5 5 9 8 6 5 5 5 6 6 6 6 6 7 6 7
27 26 26 23 20 18 17 15 13 14 15 14 14 11 9 10 8 6 6 7 6 7 7 7 6 6 5 3 3 3 3 3 4 4 4 4 5 5 7 4 5 6 6
27 26 25 23 21 19 17 15 16 15 13 11 9 7 7 6 6 6 7 9 10 10 10 10 10 10 7 5 4 3 3 4 2 3 5 4 2 6 7 5 4 5 5
27 25 23 25 22 20 17 16 14 13 11 10 9 9 9 9 10 10 10 11 11 11 11 11 11 11 10 9 8 6 5 4 3 2 5 2 4 6 6 6 3 4 4
26 25 25 24 22 19 18 15 12 13 11 10 9 10 11 11 11 11 11 11 11 11 10 11 11 10 11 10 9 8 7 7 7 4 2 2 2 6 7 7 6 5 3
26 25 27 24 22 22 18 14 14 12 11 10 11 12 12 12 11 11 11 11 11 10 10 10 10 10 10 10 10 10 11 11 10 5 4 4 5 6 7 8 6 4 4
25 26 23 24 23 20 16 16 13 12 13 13 13 13 12 11 12 11 11 11 11 10 10 10 11 10 10 10 9 9 11 15 10 10 10 10 8 10 10 10 10 10 10
28 25 23 24 21 18 17 15 14 14 14 14 13 13 12 12 11 11 11 11 10 10 10 10 11 10 10 10 10 10 10 10 9 12 16 13 12 12 11 11 10 11 11
26 25 24 21 19 17 16 15 16 16 14 14 13 13 12 12 12 11 11 10 10 10 10 10 9 10 10 10 11 13 14 15 11 13 14 15 16 15 15 13 13 13 13
25 26 24 21 17 16 15 17 17 16 15 13 11 11 11 11 11 11 11 8 9 9 9 9 9 10 11 10 11 12 10 13 9 11 10 11 12 12 12 14 13 13 14
26 25 22 20 18 16 16 18 16 13 12 11 12 12 11 7 8 7 9 8 9 9 10 9 10 11 12 12 14 12 13 10 10 10 10 13 11 11 12 12 13 13 12
22 21 22 19 18 17 14 16 13 13 10 8 9 7 7 7 7 7 9 10 9 11 12 12 12 11 9 5 5 10 9 9 10 11 11 14 13 13 13 15 15 14 13
19 19 19 18 17 15 15 14 12 11 10 9 9 7 8 6 6 5 4 5 5 9 6 7 7 7 8 7 7 8 8 8 9 10 10 12 13 13 13 13 11 13 13
21 21 20 16 16 13 12 12 12 11 10 9 7 8 7 6 6 5 5 5 5 5 6 6 7 8 8 7 8 8 8 8 8 8 8 7 11 10 10 10 11 11 12
22 19 20 18 15 14 12 11 11 10 10 9 8 7 7 6 6 6 5 5 5 5 6 6 6 7 7 6 6 7 7 7 7 7 7 7 8 10 12 11 11 11 12
27 24 23 20 15 14 11 10 10 10 10 9 7 6 7 6 6 6 5 5 5 5 5 5 5 5 5 5 5 5 5 5 6 6 5 8 8 9 11 12 12 12 11
27 25 22 22 17 14 13 11 9 10 9 9 8 7 7 7 6 6 5 5 4 4 4 4 5 4 4 4 3 3 3 3 3 4 4 4 6 8 8 10 11 11 11
25 29 24 22 19 15 13 12 10 10 8 8 8 7 6 7 7 6 5 4 3 3 3 3 3 4 4 2 1 1 1 1 1 1 2 2 2 2 6 8 9 8 9
21 27 27 23 20 15 14 12 10 10 9 8 8 7 7 6 6 5 5 4 3 2 2 2 3 3 3 3 2 2 2 3 3 2 2 1 1 1 1 6 7 7 7
17 22 27 23 19 15 14 12 11 10 9 8 8 7 7 6 5 5 4 3 3 2 2 3 2 3 2 3 3 3 5 5 5 5 5 4 3 2 1 1 3 7 7
18 20 20 21 19 18 15 15 13 12 10 9 8 9 8 7 6 5 4 3 3 2 1 1 1 2 2 3 4 5 5 5 6 6 6 6 6 5 5 4 3 2 6
22 20 19 20 22 17 13 13 13 13 11 10 10 9 8 8 7 6 5 4 4 2 1 0 1 2 2 3 4 4 2 4 6 8 7 7 8 7 7 7 7 7 6
24 24 22 19 20 16 13 12 11 12 10 10 11 10 10 9 8 7 6 5 4 3 3 3 2 1 3 2 3 3 2 2 6 6 6 6 7 7 8 9 10 9 9
21 21 22 19 15 12 12 12 12 12 11 10 13 13 12 11 10 9 8 7 5 4 4 4 3 2 2 3 2 2 3 3 3 3 3 6 6 8 10 9 10 11 11
22 24 21 21 16 11 12 11 12 11 10 10 11 11 10 11 10 10 9 8 6 5 4 4 4 4 4 4 4 4 4 5 6 4 5 5 6 8 8 10 12 12 12
30 32 28 24 22 17 11 11 13 13 11 12 12 12 12 11 11 11 10 8 7 5 4 4 5 6 6 5 6 5 6 6 6 6 5 9 10 11 8 11 13 12 11
Wind_Direction
150 157 159 155 152 142 138 135 126 129 126 120 116 108 100 96 93 89 83 79 69 55 46 45 50 54 48 41 46 45 55 53 37 37 51 55 44 54 21 33 35 48 44
152 156 158 157 152 144 139 142 138 123 115 114 108 112 103 88 84 79 63 51 43 38 36 31 23 16 4 5 12 36 13 16 10 28 43 34 28 33 26 25 54 47 42
150 154 155 157 151 146 146 139 133 126 120 117 114 104 97 92 80 72 69 64 58 56 53 49 44 37 25 9 354 339 319 308 335 38 64 26 326 349 18 6 13 28 31
149 152 155 155 148 150 144 140 130 117 117 119 109 100 91 85 81 76 70 69 68 61 56 55 54 49 44 39 32 16 337 324 302 296 351 342 349 332 356 16 349 326 358
147 152 152 151 150 148 146 143 134 120 118 114 109 101 95 91 86 79 75 68 63 65 60 55 51 50 47 44 38 31 27 32 45 35 333 334 353 0 354 347 354 327 305
148 145 153 149 150 150 145 146 128 126 122 114 108 103 99 95 87 81 78 73 69 63 58 60 57 48 47 42 41 51 57 62 50 41 49 21 26 9 36 35 49 47 359
141 145 150 152 151 150 153 139 132 126 120 113 109 105 100 94 89 86 79 76 70 66 60 61 62 52 48 49 48 60 71 61 58 64 71 63 55 49 50 55 60 64 56
142 146 148 155 154 156 154 139 133 127 123 117 112 107 102 98 92 86 80 76 72 67 65 64 67 59 54 56 61 67 76 62 68 66 64 58 58 50 46 49 50 53 55
145 145 147 145 152 157 143 140 135 129 127 122 117 112 110 104 94 86 80 76 71 70 66 64 69 69 63 67 70 74 76 63 68 59 58 53 52 53 48 52 57 57 50
143 145 146 143 143 139 137 141 142 142 137 132 124 109 96 90 79 80 58 73 73 71 72 73 72 76 73 72 74 82 67 52 62 55 56 47 44 42 43 47 50 54 52
145 149 145 147 147 145 143 145 147 141 131 127 119 106 85 95 86 76 80 75 73 73 75 79 80 82 78 67 73 67 59 60 60 53 45 43 42 49 51 52 54 53 55
143 136 148 151 150 147 151 139 143 140 128 144 128 118 122 115 112 93 80 72 69 71 64 70 77 66 62 68 45 48 60 64 62 54 46 53 56 59 58 57 56 55 51
138 139 148 152 152 151 152 148 148 149 148 142 140 138 130 114 94 99 70 63 57 62 62 60 60 72 71 71 67 65 59 61 61 59 60 62 51 55 51 51 46 43 39
154 149 149 156 155 154 156 152 152 153 150 145 151 144 132 126 117 113 99 85 75 71 68 75 73 75 76 76 78 71 62 60 61 66 48 59 51 48 42 37 39 35 31
151 158 156 157 159 155 155 153 150 157 147 151 150 149 136 130 125 116 104 93 80 72 70 71 77 81 82 84 85 78 69 58 60 71 49 55 56 51 48 46 41 36 32
163 165 166 160 160 157 154 152 150 153 148 146 147 153 136 130 127 120 111 96 79 73 72 69 74 79 86 92 89 77 76 66 64 72 75 48 54 57 51 47 46 45 41
170 167 167 166 160 159 155 150 153 152 146 144 151 147 138 130 128 124 117 100 84 78 75 75 67 75 82 88 91 81 87 78 79 80 80 72 20 37 44 50 49 47 42
172 177 176 176 163 160 155 154 159 148 152 152 149 148 147 140 134 129 121 111 94 76 78 74 66 61 58 55 56 107 138 128 120 106 95 78 77 32 6 37 39 41 42
171 166 173 178 165 161 159 161 156 152 159 160 156 156 156 144 141 137 128 119 109 92 72 61 50 47 29 18 322 262 248 241 229 231 219 207 246 76 17 0 18 22 21
168 169 174 174 163 167 165 157 155 159 167 169 167 167 162 156 151 137 127 131 120 106 68 45 39 29 30 353 307 268 259 252 245 244 248 248 249 257 270 325 355 326 357
166 174 172 168 170 169 174 168 167 171 174 175 175 175 169 169 162 153 152 158 141 124 102 64 13 348 331 341 286 242 244 250 250 251 251 251 255 259 259 269 287 293 314
170 180 182 173 171 176 182 177 178 175 182 180 180 180 179 178 175 168 175 174 166 160 185 254 26 315 304 344 332 292 282 199 235 239 244 261 260 256 260 270 272 279 283
175 183 189 184 183 179 184 177 172 171 169 179 186 183 189 184 184 177 186 187 187 197 211 249 258 291 315 316 357 337 303 330 358 180 238 248 262 257 264 268 268 269 274
175 188 196 196 190 189 196 186 184 184 184 196 188 187 188 187 189 191 194 203 199 216 228 248 259 247 259 288 309 261 282 321 324 320 224 231 245 273 278 271 273 275 276
175 190 199 199 193 188 215 209 202 204 199 178 181 182 185 190 194 198 200 209 207 218 227 245 254 257 251 257 253 261 250 258 254 255 293 315 282 290 274 280 281 278 273
178 187 197 205 203 206 218 234 232 218 188 178 178 182 187 192 194 202 202 206 207 211 222 218 239 247 248 249 260 256 261 270 282 262 270 290 308 303 302 282 283 279 273
Height
782 787 792 796 800 803 805 807 809 810 811 813 814 814 815 815 815 816 816 816 816 816 816 815 816 816 816 816 816 815 815 815 815 815 815 815 815 815 815 814 814 815 813
780 787 792 797 801 804 806 808 810 811 813 814 815 815 816 816 816 817 817 818 817 817 816 816 816 816 816 816 816 816 816 815 815 816 816 815 815 816 816 815 815 815 815
781 788 793 797 801 805 807 809 811 812 814 815 815 816 816 816 817 818 818 818 819 818 818 817 817 817 816 816 816 816 816 815 816 816 816 816 816 816 816 815 816 815 815
781 789 794 798 801 805 808 810 812 813 815 815 816 816 817 818 818 819 819 819 819 820 819 819 819 818 818 817 817 816 815 815 815 816 816 817 817 816 817 816 816 816 816
782 789 794 798 802 805 808 811 813 814 815 816 817 817 818 819 819 820 820 821 821 820 821 820 820 819 819 818 817 816 816 815 815 816 817 818 817 816 817 816 816 816 816
784 790 795 799 802 805 808 811 814 814 815 817 818 818 820 820 820 821 821 822 823 822 822 821 821 821 819 819 818 818 817 816 816 817 818 818 819 818 817 817 816 816 816
784 792 797 800 803 806 809 812 814 816 817 818 819 820 821 822 822 822 822 822 823 823 823 823 822 822 821 820 820 819 819 818 819 819 818 819 820 820 819 818 818 817 817
786 793 798 801 804 807 809 812 814 817 819 820 821 821 822 823 824 823 823 823 824 824 824 823 822 822 822 821 821 821 820 820 821 821 820 821 821 821 821 820 819 818 818
788 793 798 802 805 808 811 813 815 817 820 821 822 822 822 823 824 824 824 825 825 824 824 824 823 823 823 823 823 823 822 822 823 823 823 824 824 823 822 821 821 820 820
789 794 798 802 807 810 813 814 816 818 820 822 823 823 824 825 825 825 826 826 825 825 825 825 825 825 825 825 825 825 825 825 826 826 827 826 826 825 824 824 823 823 822
789 794 798 803 807 811 814 814 817 819 821 823 824 825 826 828 828 827 826 827 827 827 827 827 827 827 827 828 828 827 826 828 828 828 829 828 828 827 826 825 825 824 824
789 793 799 803 807 810 814 815 819 820 823 825 825 827 828 829 828 828 828 828 829 828 829 829 829 829 829 830 830 829 830 830 830 831 831 829 829 828 828 827 826 826 825
789 795 800 803 807 811 814 815 819 821 824 825 826 828 828 829 829 831 831 831 831 830 831 831 831 831 831 832 831 832 832 832 832 832 831 831 830 830 830 828 828 828 827
791 795 799 804 807 811 814 815 818 821 823 824 827 827 828 830 830 831 832 832 832 833 833 832 832 832 832 833 833 833 834 834 833 833 833 832 832 832 831 831 830 829 828
790 795 799 803 807 810 814 816 818 821 822 824 827 828 828 829 831 831 832 833 833 833 834 834 834 833 833 834 834 834 834 835 835 834 833 833 833 832 832 831 830 829 829
788 791 797 802 806 810 813 816 819 821 822 824 827 828 828 829 831 832 832 833 834 834 835 835 835 835 834 834 835 835 835 836 836 836 836 834 834 833 833 832 831 829 830
778 790 798 802 806 809 813 816 820 821 822 824 827 828 828 829 831 832 833 834 835 835 835 836 836 836 835 835 835 836 835 836 837 837 837 837 836 835 833 832 831 831 831
786 787 796 803 806 809 812 816 819 820 823 825 826 827 829 829 830 832 833 833 835 836 836 836 836 836 836 836 836 836 836 836 836 836 836 837 837 837 835 833 831 831 831
787 789 793 802 805 807 811 816 818 820 823 825 826 827 829 829 831 832 833 833 834 836 837 837 836 836 836 836 836 836 836 836 835 836 836 836 836 836 835 833 833 832 831
790 793 795 801 804 808 812 815 817 820 823 824 826 827 829 830 831 832 833 834 835 836 837 837 837 836 835 835 835 834 834 835 835 835 836 836 836 835 835 834 833 832 831
790 794 796 799 804 808 811 813 815 818 821 823 825 827 828 830 831 832 833 834 835 836 837 836 836 836 836 835 834 832 832 833 834 834 835 835 835 835 834 833 833 832 831
788 793 797 800 803 806 809 811 814 816 818 820 823 825 826 828 830 831 833 834 835 834 835 836 834 835 836 835 834 833 829 830 831 832 833 834 834 834 834 833 833 831 830
786 791 797 800 803 805 809 812 814 816 817 819 821 822 825 826 828 829 832 834 833 834 834 836 835 834 835 836 835 835 830 828 830 829 831 832 832 832 831 831 831 830 829
784 790 795 800 804 805 810 811 813 814 816 817 819 820 822 824 826 827 830 831 831 833 833 835 835 834 834 834 835 835 836 836 834 831 830 830 830 831 830 829 829 828 827
781 788 794 800 802 805 811 812 813 814 815 816 818 819 821 823 824 825 827 828 829 830 831 833 834 834 834 833 833 833 834 834 834 834 830 828 829 828 828 828 827 826 825
774 780 790 797 800 803 808 812 815 814 812 814 815 818 820 822 822 823 824 826 827 828 828 828 830 832 832 831 832 832 833 832 831 831 829 827 826 826 825 825 824 824 823